Flag for Netherlands Weather past 2 weeks in Zaandam, Netherlands

Now
52 °F

Passing clouds.


Feels Like: 50 °F
Forecast: 52 / 61 °F
Wind: 6 mph from West

Location: Amsterdam Schiphol Airport

Current Time: Aug 22, 2014 at 11:37:43 PM

Latest Report: Aug 22, 2014 at 10:55 PM


Visibility: N/A

Pressure: 29.86 "Hg

Humidity: 94%

Dew point: 50 °F

Location of ZaandamLocation

Historic Weather in Zaandam — Graph

°F

Zaandam temperature yesterday

Maximum temperature yesterday: 64 °F (at 4:25 PM)
Minimum temperature yesterday: 46 °F (at 5:55 AM)
Average temperature yesterday: 56 °F

Past Weeks' High & Low Weather Summary

 TemperatureHumidityPressure
High73 °F (Aug 8, 12:55 PM)100% (Aug 8, 3:25 AM)30.07 "Hg (Aug 8, 3:25 AM)
Low46 °F (Aug 21, 5:55 AM)47% (Aug 9, 3:55 PM)29.45 "Hg (Aug 10, 6:25 PM)
Average61 °F79%29.80 "Hg
* Reported Aug 7 10:25 PM — Aug 22 10:25 PM, Zaandam, Weather by CustomWeather, © 2014

Note: Actual official high and low records may vary slightly from our data, if they occured in-between our weather recording intervals... More about our weather records

Advertising

Zaandam weather history for previous 24 hours

 ConditionsComfort  
Time TempWeatherWind HumidityBarometerVisibility
10:25 PM
Aug 22
55 °FPassing clouds.7 mph82%29.86 "HgN/A
9:55 PM55 °FPassing clouds.8 mph82%29.86 "HgN/A
9:25 PM54 °FPassing clouds.7 mph88%29.86 "HgN/A
8:55 PM55 °FPassing clouds.8 mph82%29.83 "HgN/A
8:25 PM55 °FPassing clouds.7 mph88%29.83 "HgN/A
7:55 PM55 °FPassing clouds.8 mph82%29.83 "HgN/A
7:25 PM57 °FScattered showers. Scattered clouds.7 mph88%29.83 "HgN/A
6:55 PM59 °FSprinkles. Scattered clouds.10 mph77%29.83 "HgN/A
6:25 PM61 °FPassing clouds.13 mph72%29.80 "HgN/A
5:55 PM61 °FPassing clouds.12 mph72%29.80 "HgN/A
5:25 PM61 °FScattered showers. Passing clouds.13 mph83%29.80 "HgN/A
4:55 PM61 °FScattered showers. Passing clouds.7 mph88%29.80 "HgN/A
4:25 PM57 °FSprinkles. Scattered clouds.10 mph94%29.80 "HgN/A
3:55 PM57 °FSprinkles. Scattered clouds.10 mph94%29.80 "HgN/A
3:25 PM55 °FStrong thunderstorms. Scattered clouds.9 mph100%29.80 "Hg3 mi
2:55 PM55 °FSprinkles. Scattered clouds.8 mph94%29.80 "HgN/A
2:25 PM55 °FRain showers. Scattered clouds.14 mph94%29.80 "Hg3 mi
1:55 PM57 °FThunderstorms. Scattered clouds.15 mph94%29.80 "Hg4 mi
1:25 PM59 °FSprinkles. Passing clouds.18 mph82%29.80 "HgN/A
12:55 PM59 °FSprinkles. Passing clouds.15 mph88%29.80 "HgN/A
12:25 PM59 °FRain showers. Passing clouds.16 mph88%29.80 "Hg5 mi
11:55 AM61 °FSprinkles. Passing clouds.21 mph83%29.80 "HgN/A
11:25 AM59 °FSprinkles. Passing clouds.15 mph88%29.80 "HgN/A
10:55 AM57 °FSprinkles. Passing clouds.18 mph88%29.80 "HgN/A
10:25 AM57 °FScattered showers. Passing clouds.17 mph88%29.80 "HgN/A
9:55 AM57 °FSprinkles. Passing clouds.23 mph88%29.80 "HgN/A
9:25 AM57 °FSprinkles. Passing clouds.16 mph88%29.80 "HgN/A
8:55 AM57 °FScattered showers. Passing clouds.14 mph88%29.80 "HgN/A
8:25 AM57 °FSprinkles. Passing clouds.13 mph88%29.80 "Hg6 mi
7:55 AM55 °FSprinkles. Passing clouds.16 mph94%29.80 "HgN/A
7:25 AM55 °FSprinkles. Passing clouds.17 mph94%29.80 "HgN/A
6:55 AM55 °FPassing clouds.18 mph88%29.80 "HgN/A
6:25 AM55 °FPassing clouds.16 mph94%29.80 "HgN/A
5:55 AM55 °FSprinkles. Passing clouds.15 mph88%29.80 "HgN/A
5:25 AM55 °FPassing clouds.16 mph88%29.83 "HgN/A
4:55 AM55 °FPassing clouds.17 mph88%29.83 "HgN/A
4:25 AM55 °FPassing clouds.14 mph94%29.83 "HgN/A
3:55 AM55 °FSprinkles. Passing clouds.15 mph88%29.83 "HgN/A
3:25 AM55 °FPassing clouds.13 mph88%29.83 "HgN/A
2:55 AM55 °FPassing clouds.14 mph88%29.86 "HgN/A
2:25 AM55 °FPassing clouds.12 mph88%29.86 "HgN/A
1:55 AM55 °FPassing clouds.10 mph94%29.86 "HgN/A
1:25 AM54 °FSprinkles. Passing clouds.10 mph100%29.89 "HgN/A
12:55 AM55 °FRain showers. Passing clouds.17 mph94%29.89 "Hg4 mi
12:25 AM55 °FSprinkles. Passing clouds.15 mph94%29.89 "HgN/A
11:55 PM
Aug 21
55 °FSprinkles. Passing clouds.10 mph88%29.89 "HgN/A
11:25 PM55 °FPassing clouds.12 mph88%29.89 "HgN/A
Weather by CustomWeather, © 2014

See weather overviewHow to use our weather pages